{"data":{"norad_id":56123,"intl_designator":"2023-046AH","name":"STARLINK-6115","alt_names":[],"object_type":"PAYLOAD","status":"ACTIVE","operator":null,"country":"US","launch_date":"2023-03-29","launch_site_code":"AFETR","launch_vehicle":null,"mission":null,"orbit_class":"UNKNOWN","rcs_meters":null,"size_class":null,"mass_kg":null,"dimensions":null,"purposes":["comms"],"wikipedia_slug":null,"has_3d_model":false,"image_url":null,"decayed_at":null,"tle_current":{"epoch":"2026-09-20T22:17:31.196256Z","epoch_age_seconds":71763,"freshness":"FRESH","line1":"1 56123U 23046AH  26263.92883329 -.00000261  00000+0  51637-7 0  9993","line2":"2 56123  43.0031 124.8774 0001311 263.5974  96.4728 15.27575051192056","mean_motion":15.27575051,"eccentricity":0.0001311,"inclination_deg":43.0031,"raan_deg":124.8774,"arg_perigee_deg":263.5974,"mean_anomaly_deg":96.4728,"bstar":5.1637e-8,"rev_number":19205,"period_min":94.267054116741,"perigee_km":482.16441172608,"apogee_km":483.96341860603,"semimajor_km":6861.2009151661,"source":"CELESTRAK","updated_at":"2026-09-21T09:00:33.386157Z"}}}